******** Week 282 almanac for PRN-02 ******** ID: 02 Health: 000 Eccentricity: 0.1609849930E-001 Time of Applicability(s): 503808.0000 Orbital Inclination(rad): 0.9673450628 Rate of Right Ascen(r/s): -0.7748894201E-008 SQRT(A) (m 1/2): 5153.645996 Right Ascen at Week(rad): 0.1809318355E+000 Argument of Perigee(rad): -1.136340086 Mean Anom(rad): 0.3112385599E+001 Af0(s): -0.3633499146E-003 Af1(s/s): 0.7275957614E-011 week: 282 ******** Week 282 almanac for PRN-03 ******** ID: 03 Health: 000 Eccentricity: 0.5722999573E-002 Time of Applicability(s): 503808.0000 Orbital Inclination(rad): 0.9856329900 Rate of Right Ascen(r/s): -0.7668890869E-008 SQRT(A) (m 1/2): 5153.618164 Right Ascen at Week(rad): 0.1317186159E+001 Argument of Perigee(rad): 1.156964563 Mean Anom(rad): -0.4434687525E+000 Af0(s): 0.5283355713E-003 Af1(s/s): 0.1455191523E-010 week: 282 ******** Week 282 almanac for PRN-04 ******** ID: 04 Health: 000 Eccentricity: 0.2993583679E-002 Time of Applicability(s): 503808.0000 Orbital Inclination(rad): 0.9656672713 Rate of Right Ascen(r/s): -0.8023191341E-008 SQRT(A) (m 1/2): 5153.651855 Right Ascen at Week(rad): 0.2395276171E+001 Argument of Perigee(rad): -3.000346953 Mean Anom(rad): 0.2627558538E+001 Af0(s): 0.4386901855E-003 Af1(s/s): 0.7275957614E-011 week: 282 ******** Week 282 almanac for PRN-05 ******** ID: 05 Health: 000 Eccentricity: 0.5897998810E-002 Time of Applicability(s): 503808.0000 Orbital Inclination(rad): 0.9725761769 Rate of Right Ascen(r/s): -0.7794610391E-008 SQRT(A) (m 1/2): 5153.618164 Right Ascen at Week(rad): 0.1264497140E+001 Argument of Perigee(rad): 1.323614572 Mean Anom(rad): -0.3018221050E+001 Af0(s): -0.1859664917E-003 Af1(s/s): 0.0000000000E+000 week: 282 ******** Week 282 almanac for PRN-06 ******** ID: 06 Health: 000 Eccentricity: 0.3003597260E-002 Time of Applicability(s): 503808.0000 Orbital Inclination(rad): 0.9898993740 Rate of Right Ascen(r/s): -0.7486026109E-008 SQRT(A) (m 1/2): 5153.651367 Right Ascen at Week(rad): 0.2814416573E+000 Argument of Perigee(rad): -0.748989339 Mean Anom(rad): 0.1029669998E+001 Af0(s): 0.4863739014E-004 Af1(s/s): -0.2546585165E-010 week: 282 ******** Week 282 almanac for PRN-07 ******** ID: 07 Health: 000 Eccentricity: 0.1872491837E-001 Time of Applicability(s): 503808.0000 Orbital Inclination(rad): 0.9508008403 Rate of Right Ascen(r/s): -0.7806039439E-008 SQRT(A) (m 1/2): 5153.566406 Right Ascen at Week(rad): -0.2875978412E+001 Argument of Perigee(rad): -2.102234533 Mean Anom(rad): 0.1173338010E+000 Af0(s): -0.4100799561E-004 Af1(s/s): 0.3637978807E-011 week: 282 ******** Week 282 almanac for PRN-08 ******** ID: 08 Health: 000 Eccentricity: 0.9628772736E-002 Time of Applicability(s): 503808.0000 Orbital Inclination(rad): 0.9514300121 Rate of Right Ascen(r/s): -0.8297488481E-008 SQRT(A) (m 1/2): 5153.620605 Right Ascen at Week(rad): -0.8174061556E+000 Argument of Perigee(rad): 0.367924318 Mean Anom(rad): 0.2951719463E+001 Af0(s): 0.3433227539E-003 Af1(s/s): 0.1455191523E-010 week: 282 ******** Week 282 almanac for PRN-09 ******** ID: 09 Health: 000 Eccentricity: 0.3079414368E-002 Time of Applicability(s): 503808.0000 Orbital Inclination(rad): 0.9592976557 Rate of Right Ascen(r/s): -0.8114623721E-008 SQRT(A) (m 1/2): 5153.541992 Right Ascen at Week(rad): 0.2334958818E+001 Argument of Perigee(rad): 1.977330073 Mean Anom(rad): -0.2834636956E+001 Af0(s): 0.3452301025E-003 Af1(s/s): 0.1455191523E-010 week: 282 ******** Week 282 almanac for PRN-10 ******** ID: 10 Health: 000 Eccentricity: 0.9613037109E-002 Time of Applicability(s): 503808.0000 Orbital Inclination(rad): 0.9852794553 Rate of Right Ascen(r/s): -0.7703178011E-008 SQRT(A) (m 1/2): 5153.638672 Right Ascen at Week(rad): 0.1314637639E+001 Argument of Perigee(rad): -2.380010890 Mean Anom(rad): -0.1363737383E+001 Af0(s): -0.1173019409E-003 Af1(s/s): -0.1091393642E-010 week: 282 ******** Week 282 almanac for PRN-11 ******** ID: 11 Health: 000 Eccentricity: 0.1659393311E-002 Time of Applicability(s): 503808.0000 Orbital Inclination(rad): 0.9664821986 Rate of Right Ascen(r/s): -0.7714607059E-008 SQRT(A) (m 1/2): 5153.722656 Right Ascen at Week(rad): 0.3122104057E+000 Argument of Perigee(rad): -2.551052370 Mean Anom(rad): 0.2164993297E+001 Af0(s): -0.7314682007E-003 Af1(s/s): -0.3637978807E-011 week: 282 ******** Week 282 almanac for PRN-12 ******** ID: 12 Health: 000 Eccentricity: 0.8677482605E-002 Time of Applicability(s): 503808.0000 Orbital Inclination(rad): 0.9614907689 Rate of Right Ascen(r/s): -0.7977475151E-008 SQRT(A) (m 1/2): 5153.548828 Right Ascen at Week(rad): -0.1760136594E+001 Argument of Perigee(rad): 1.461444394 Mean Anom(rad): -0.6087769038E+000 Af0(s): -0.5359649658E-003 Af1(s/s): -0.3637978807E-011 week: 282 ******** Week 282 almanac for PRN-13 ******** ID: 13 Health: 000 Eccentricity: 0.8588790894E-002 Time of Applicability(s): 503808.0000 Orbital Inclination(rad): 0.9721567291 Rate of Right Ascen(r/s): -0.7920329914E-008 SQRT(A) (m 1/2): 5153.641113 Right Ascen at Week(rad): 0.2502424130E+001 Argument of Perigee(rad): 0.956660227 Mean Anom(rad): 0.2644026735E+001 Af0(s): 0.6752014160E-003 Af1(s/s): 0.3637978807E-011 week: 282 ******** Week 282 almanac for PRN-14 ******** ID: 14 Health: 000 Eccentricity: 0.4847526550E-002 Time of Applicability(s): 503808.0000 Orbital Inclination(rad): 0.9448446805 Rate of Right Ascen(r/s): -0.8137481816E-008 SQRT(A) (m 1/2): 5153.643555 Right Ascen at Week(rad): -0.1806216688E+001 Argument of Perigee(rad): -2.855270046 Mean Anom(rad): -0.7204635133E+000 Af0(s): 0.4892349243E-003 Af1(s/s): 0.7275957614E-011 week: 282 ******** Week 282 almanac for PRN-15 ******** ID: 15 Health: 000 Eccentricity: 0.1610088348E-001 Time of Applicability(s): 503808.0000 Orbital Inclination(rad): 0.9362340149 Rate of Right Ascen(r/s): -0.8354633718E-008 SQRT(A) (m 1/2): 5153.634277 Right Ascen at Week(rad): 0.2204415780E+001 Argument of Perigee(rad): 1.350946844 Mean Anom(rad): 0.1957305556E+001 Af0(s): 0.2012252808E-003 Af1(s/s): 0.3637978807E-011 week: 282 ******** Week 282 almanac for PRN-16 ******** ID: 16 Health: 000 Eccentricity: 0.1391458511E-001 Time of Applicability(s): 503808.0000 Orbital Inclination(rad): 0.9609095340 Rate of Right Ascen(r/s): -0.8000333246E-008 SQRT(A) (m 1/2): 5153.564941 Right Ascen at Week(rad): -0.1742383088E+001 Argument of Perigee(rad): 0.842568159 Mean Anom(rad): -0.2376717475E+001 Af0(s): -0.1878738403E-003 Af1(s/s): 0.1091393642E-010 week: 282 ******** Week 282 almanac for PRN-17 ******** ID: 17 Health: 000 Eccentricity: 0.1351642609E-001 Time of Applicability(s): 503808.0000 Orbital Inclination(rad): 0.9672791495 Rate of Right Ascen(r/s): -0.8103194673E-008 SQRT(A) (m 1/2): 5153.737793 Right Ascen at Week(rad): -0.7210705892E+000 Argument of Perigee(rad): -1.306819056 Mean Anom(rad): 0.2866022143E+001 Af0(s): 0.6341934204E-003 Af1(s/s): -0.1091393642E-010 week: 282 ******** Week 282 almanac for PRN-18 ******** ID: 18 Health: 000 Eccentricity: 0.4607200623E-002 Time of Applicability(s): 503808.0000 Orbital Inclination(rad): 0.9747513137 Rate of Right Ascen(r/s): -0.7646032774E-008 SQRT(A) (m 1/2): 5153.558594 Right Ascen at Week(rad): 0.2840579634E+000 Argument of Perigee(rad): -3.008071910 Mean Anom(rad): 0.9857253434E+000 Af0(s): -0.6513595581E-003 Af1(s/s): -0.3637978807E-011 week: 282 ******** Week 282 almanac for PRN-19 ******** ID: 19 Health: 000 Eccentricity: 0.9981632233E-002 Time of Applicability(s): 503808.0000 Orbital Inclination(rad): 0.9665181512 Rate of Right Ascen(r/s): -0.8091765626E-008 SQRT(A) (m 1/2): 5153.679199 Right Ascen at Week(rad): -0.6768132211E+000 Argument of Perigee(rad): 2.641210443 Mean Anom(rad): -0.1473560445E+001 Af0(s): 0.5350112915E-003 Af1(s/s): 0.3637978807E-011 week: 282 ******** Week 282 almanac for PRN-20 ******** ID: 20 Health: 000 Eccentricity: 0.3756999969E-002 Time of Applicability(s): 503808.0000 Orbital Inclination(rad): 0.9550192874 Rate of Right Ascen(r/s): -0.7943188009E-008 SQRT(A) (m 1/2): 5153.541504 Right Ascen at Week(rad): 0.1133866842E+001 Argument of Perigee(rad): -2.555283924 Mean Anom(rad): 0.1392070338E+001 Af0(s): 0.3709793091E-003 Af1(s/s): 0.0000000000E+000 week: 282 ******** Week 282 almanac for PRN-21 ******** ID: 21 Health: 000 Eccentricity: 0.2534341812E-001 Time of Applicability(s): 503808.0000 Orbital Inclination(rad): 0.9615926348 Rate of Right Ascen(r/s): -0.7771752296E-008 SQRT(A) (m 1/2): 5153.611328 Right Ascen at Week(rad): 0.1731387188E+000 Argument of Perigee(rad): -0.522448165 Mean Anom(rad): 0.2756192339E+001 Af0(s): 0.1020431519E-003 Af1(s/s): 0.0000000000E+000 week: 282 ******** Week 282 almanac for PRN-22 ******** ID: 22 Health: 000 Eccentricity: 0.1414251328E-001 Time of Applicability(s): 503808.0000 Orbital Inclination(rad): 0.9602444095 Rate of Right Ascen(r/s): -0.8000333246E-008 SQRT(A) (m 1/2): 5153.640137 Right Ascen at Week(rad): -0.1739087427E+001 Argument of Perigee(rad): -1.118050286 Mean Anom(rad): -0.2845947443E+001 Af0(s): -0.5912780762E-004 Af1(s/s): -0.3637978807E-011 week: 282 ******** Week 282 almanac for PRN-23 ******** ID: 23 Health: 000 Eccentricity: 0.4638671875E-002 Time of Applicability(s): 503808.0000 Orbital Inclination(rad): 0.9804198521 Rate of Right Ascen(r/s): -0.7737465154E-008 SQRT(A) (m 1/2): 5153.558594 Right Ascen at Week(rad): 0.1285148207E+001 Argument of Perigee(rad): -2.956289572 Mean Anom(rad): -0.2015847746E+000 Af0(s): 0.3147125244E-003 Af1(s/s): 0.7275957614E-011 week: 282 ******** Week 282 almanac for PRN-24 ******** ID: 24 Health: 000 Eccentricity: 0.1584863663E-001 Time of Applicability(s): 503808.0000 Orbital Inclination(rad): 0.9345382471 Rate of Right Ascen(r/s): -0.7988904198E-008 SQRT(A) (m 1/2): 5153.648926 Right Ascen at Week(rad): -0.2974752020E+001 Argument of Perigee(rad): 1.004119256 Mean Anom(rad): 0.1068104156E+001 Af0(s): -0.4863739014E-003 Af1(s/s): 0.0000000000E+000 week: 282 ******** Week 282 almanac for PRN-25 ******** ID: 25 Health: 000 Eccentricity: 0.1172590256E-001 Time of Applicability(s): 503808.0000 Orbital Inclination(rad): 0.9495604730 Rate of Right Ascen(r/s): -0.8057478483E-008 SQRT(A) (m 1/2): 5153.687012 Right Ascen at Week(rad): -0.1847901193E+001 Argument of Perigee(rad): 1.091646792 Mean Anom(rad): -0.7271241208E+000 Af0(s): 0.4997253418E-003 Af1(s/s): 0.0000000000E+000 week: 282 ******** Week 282 almanac for PRN-26 ******** ID: 26 Health: 000 Eccentricity: 0.9152889252E-002 Time of Applicability(s): 503808.0000 Orbital Inclination(rad): 0.9303737289 Rate of Right Ascen(r/s): -0.8228914196E-008 SQRT(A) (m 1/2): 5153.637695 Right Ascen at Week(rad): -0.1912333254E+001 Argument of Perigee(rad): 0.549975181 Mean Anom(rad): -0.1471018292E+001 Af0(s): 0.8487701416E-004 Af1(s/s): -0.7275957614E-011 week: 282 ******** Week 282 almanac for PRN-27 ******** ID: 27 Health: 000 Eccentricity: 0.1259469986E-001 Time of Applicability(s): 503808.0000 Orbital Inclination(rad): 0.9604781019 Rate of Right Ascen(r/s): -0.8206056101E-008 SQRT(A) (m 1/2): 5153.626465 Right Ascen at Week(rad): -0.7900517877E+000 Argument of Perigee(rad): 0.797676751 Mean Anom(rad): 0.3000857032E+001 Af0(s): -0.3337860107E-004 Af1(s/s): 0.0000000000E+000 week: 282 ******** Week 282 almanac for PRN-28 ******** ID: 28 Health: 000 Eccentricity: 0.3700256348E-003 Time of Applicability(s): 503808.0000 Orbital Inclination(rad): 0.9618862483 Rate of Right Ascen(r/s): -0.7691748964E-008 SQRT(A) (m 1/2): 5153.667969 Right Ascen at Week(rad): -0.2907869558E+001 Argument of Perigee(rad): 1.399348882 Mean Anom(rad): -0.1007189465E+001 Af0(s): -0.4014968872E-003 Af1(s/s): -0.1455191523E-010 week: 282 ******** Week 282 almanac for PRN-29 ******** ID: 29 Health: 000 Eccentricity: 0.2924442291E-002 Time of Applicability(s): 503808.0000 Orbital Inclination(rad): 0.9697538920 Rate of Right Ascen(r/s): -0.8068907531E-008 SQRT(A) (m 1/2): 5153.721191 Right Ascen at Week(rad): -0.7058157944E+000 Argument of Perigee(rad): 2.664092073 Mean Anom(rad): 0.2883949420E+001 Af0(s): -0.5798339844E-003 Af1(s/s): 0.3637978807E-011 week: 282 ******** Week 282 almanac for PRN-30 ******** ID: 30 Health: 000 Eccentricity: 0.7172584534E-002 Time of Applicability(s): 503808.0000 Orbital Inclination(rad): 0.9359523856 Rate of Right Ascen(r/s): -0.7943188009E-008 SQRT(A) (m 1/2): 5153.536621 Right Ascen at Week(rad): -0.2876903070E+001 Argument of Perigee(rad): -2.446673516 Mean Anom(rad): -0.2381977052E-001 Af0(s): -0.3261566162E-003 Af1(s/s): 0.7275957614E-011 week: 282 ******** Week 282 almanac for PRN-31 ******** ID: 31 Health: 000 Eccentricity: 0.1062488556E-001 Time of Applicability(s): 503808.0000 Orbital Inclination(rad): 0.9547436503 Rate of Right Ascen(r/s): -0.7726036106E-008 SQRT(A) (m 1/2): 5153.733887 Right Ascen at Week(rad): -0.2854040540E+001 Argument of Perigee(rad): 0.721557074 Mean Anom(rad): -0.8874434640E+000 Af0(s): -0.2250671387E-003 Af1(s/s): 0.0000000000E+000 week: 282 ******** Week 282 almanac for PRN-32 ******** ID: 32 Health: 000 Eccentricity: 0.7838249207E-002 Time of Applicability(s): 503808.0000 Orbital Inclination(rad): 0.9626712150 Rate of Right Ascen(r/s): -0.8091765626E-008 SQRT(A) (m 1/2): 5153.663086 Right Ascen at Week(rad): 0.2349981793E+001 Argument of Perigee(rad): -2.134588944 Mean Anom(rad): -0.2631130211E+001 Af0(s): -0.5998611450E-003 Af1(s/s): 0.3637978807E-011 week: 282